FW2278 Weather Reports


time (UTC)temp
F
wind
direction
speed
knots
gust
knots
rain 1hr
in
rain 24hr
in
rain mn
in
humidity
%
barometer
mb
20260503202804 59 52 0.0 0.0 0.00 0.00 0.00 95 1017.8
20260503202304 59 52 0.0 0.0 0.00 0.00 0.00 95 1017.8
20260503201804 59 52 0.0 0.0 0.00 0.00 0.00 95 1017.8
20260503201304 59 52 0.0 0.0 0.00 0.00 0.00 95 1017.7
20260503200803 59 52 0.0 0.0 0.00 0.00 0.00 95 1017.7
20260503200304 59 52 0.0 0.0 0.00 0.00 0.00 95 1017.7
20260503195304 59 52 0.0 0.0 0.00 0.00 0.00 95 1017.6
20260503194804 59 52 0.0 0.0 0.00 0.00 0.00 95 1017.5
20260503194304 59 52 0.0 0.0 0.00 0.00 0.00 95 1017.4
20260503193303 59 52 0.0 0.0 0.00 0.00 0.00 95 1017.4
20260503192804 59 52 0.0 0.0 0.00 0.00 0.00 95 1017.5
20260503192305 59 52 0.0 0.0 0.00 0.00 0.00 95 1017.4
20260503191304 59 52 0.0 0.0 0.00 0.00 0.00 95 1017.4
20260503190304 59 52 0.0 0.0 0.00 0.00 0.00 95 1017.5
20260503185804 59 52 0.0 0.0 0.00 0.00 0.00 95 1017.4
20260503184804 58 52 0.0 0.0 0.00 0.00 0.00 95 1017.5
20260503183304 58 52 0.0 0.0 0.00 0.00 0.00 95 1017.5
20260503182804 58 52 0.0 0.0 0.00 0.00 0.00 95 1017.5
20260503181804 58 52 0.0 0.0 0.00 0.00 0.00 95 1017.5
20260503181304 58 52 0.0 0.0 0.00 0.00 0.00 95 1017.5
20260503180804 58 52 0.0 0.0 0.00 0.00 0.00 95 1017.5
20260503180304 58 52 0.0 0.0 0.00 0.00 0.00 95 1017.4
20260503175804 58 52 0.0 0.0 0.00 0.00 0.00 95 1017.3
20260503174304 58 52 0.0 0.0 0.00 0.00 0.00 95 1017.4
20260503173804 58 52 0.0 0.0 0.00 0.00 0.00 95 1017.5
20260503173304 58 52 0.0 0.0 0.00 0.00 0.00 95 1017.5
20260503172804 58 52 0.0 0.0 0.00 0.00 0.00 95 1017.5
20260503172305 58 52 0.0 0.0 0.00 0.00 0.00 95 1017.5
20260503171804 58 52 0.0 0.0 0.00 0.00 0.00 94 1017.6
20260503171303 58 52 0.0 0.0 0.00 0.00 0.00 94 1017.6
20260503170804 58 52 0.0 0.0 0.00 0.00 0.00 94 1017.7
20260503170304 58 52 0.0 0.0 0.00 0.00 0.00 94 1017.7
20260503150304 59 52 0.0 0.0 0.00 0.00 0.00 93 1018.6
20260503131303 61 52 0.0 0.0 0.00 0.00 0.00 92 1019.7
20260503110803 65 52 0.0 0.0 0.00 0.00 0.00 89 1020.1
20260503110304 65 52 0.0 0.0 0.00 0.00 0.00 89 1020.1
20260503090304 71 69 0.0 0.0 0.00 0.00 0.00 81 1019.8
20260503081304 72 60 0.0 0.0 0.00 0.00 0.00 78 1019.6
20260503080804 72 51 0.0 0.0 0.00 0.00 0.00 77 1019.6
20260503080304 72 53 0.0 0.0 0.00 0.00 0.00 77 1019.6
20260503072804 73 42 4.3 8.7 0.00 0.00 0.00 75 1019.5
20260503072305 73 51 4.3 12.2 0.00 0.00 0.00 74 1019.5
20260503071804 74 60 4.3 8.7 0.00 0.00 0.00 74 1019.4
20260503070803 74 40 1.7 8.7 0.00 0.00 0.00 74 1019.4
20260503070304 74 46 2.6 10.4 0.00 0.00 0.00 74 1019.4
20260503060304 77 70 4.3 8.7 0.00 0.00 0.00 68 1019.3
20260503054304 77 73 4.3 7.0 0.00 0.00 0.00 67 1019.3
20260503053804 77 84 7.0 12.2 0.00 0.00 0.00 66 1019.3
20260503053304 78 49 4.3 7.8 0.00 0.00 0.00 65 1019.4
20260503051804 78 92 4.3 10.4 0.00 0.00 0.00 62 1019.5
20260503050803 79 88 5.2 10.4 0.00 0.00 0.00 61 1019.6
20260503050303 79 37 4.3 8.7 0.00 0.00 0.00 58 1019.6
20260503045805 80 44 0.0 5.2 0.00 0.00 0.00 57 1019.7
20260503044804 79 60 4.3 7.8 0.00 0.00 0.00 57 1019.7
20260503043804 79 51 3.5 7.8 0.00 0.00 0.00 56 1019.9
20260503043304 78 69 5.2 8.7 0.00 0.00 0.00 56 1019.9
20260503042804 78 63 2.6 6.1 0.00 0.00 0.00 57 1019.8
20260503042305 78 45 3.5 7.8 0.00 0.00 0.00 56 1020.0
20260503041804 79 44 2.6 5.2 0.00 0.00 0.00 55 1020.0
20260503041303 79 42 1.7 5.2 0.00 0.00 0.00 55 1020.0
20260503040304 79 51 1.7 4.3 0.00 0.00 0.00 55 1020.1
20260503035804 79 43 0.0 0.0 0.00 0.00 0.00 54 1020.2
20260503035305 79 46 0.0 5.2 0.00 0.00 0.00 54 1020.2
20260503033304 79 80 0.9 2.6 0.00 0.00 0.00 56 1020.4
20260503032804 79 73 3.5 7.8 0.00 0.00 0.00 55 1020.5
20260503032304 79 60 2.6 6.1 0.00 0.00 0.00 54 1020.6
20260503030804 79 26 0.9 6.1 0.00 0.00 0.00 54 1020.7
20260503030304 79 353 1.7 7.0 0.00 0.00 0.00 55 1020.7
20260503025803 80 24 2.6 7.0 0.00 0.00 0.00 54 1020.9
20260503025305 79 0 0.9 6.1 0.00 0.00 0.00 57 1021.0
20260503024804 79 63 1.7 6.1 0.00 0.00 0.00 57 1021.1
20260503024304 79 333 0.0 0.0 0.00 0.00 0.00 58 1021.2
20260503023803 79 9 0.0 0.0 0.00 0.00 0.00 56 1021.3
20260503022804 79 12 0.0 0.0 0.00 0.00 0.00 57 1021.4
20260503022305 78 355 0.0 0.0 0.00 0.00 0.00 59 1021.5
20260503021304 78 355 0.0 0.0 0.00 0.00 0.00 59 1021.7
20260503020304 77 31 0.0 0.0 0.00 0.00 0.00 60 1021.9
20260503015804 77 344 0.0 0.0 0.00 0.00 0.00 60 1022.2
20260503015305 77 337 0.0 0.0 0.00 0.00 0.00 60 1022.3
20260503014804 77 337 0.0 1.7 0.00 0.00 0.00 61 1022.4
20260503013304 76 13 1.7 7.0 0.00 0.00 0.00 63 1022.6
20260503012305 76 337 0.0 0.0 0.00 0.00 0.00 63 1022.8
20260503011803 76 338 0.0 0.0 0.00 0.00 0.00 63 1022.9
20260503010803 75 33 0.0 2.6 0.00 0.00 0.00 64 1023.0
20260503010304 75 34 0.9 7.0 0.00 0.00 0.00 65 1023.1
20260503005804 75 319 0.0 2.6 0.00 0.00 0.00 65 1023.1
20260503005304 74 319 0.9 4.3 0.00 0.00 0.00 67 1023.3
20260503004804 74 40 2.6 8.7 0.00 0.00 0.00 67 1023.3
20260503004304 74 11 2.6 5.2 0.00 0.00 0.00 68 1023.3
20260503003304 73 327 1.7 4.3 0.00 0.00 0.00 70 1023.5
20260503002805 73 333 0.9 4.3 0.00 0.00 0.00 70 1023.5
20260503002305 73 333 1.7 4.3 0.00 0.00 0.00 70 1023.5
20260503001304 72 310 0.9 2.6 0.00 0.00 0.00 73 1023.6
20260503000804 72 319 1.7 5.2 0.00 0.00 0.00 74 1023.7
20260503000304 71 324 1.7 5.2 0.00 0.00 0.00 76 1023.7
20260502235305 71 28 0.0 0.0 0.00 0.00 0.00 77 1023.6
20260502234303 70 30 0.0 0.0 0.00 0.00 0.00 79 1023.6
20260502232804 69 28 0.0 0.0 0.00 0.00 0.00 85 1024.0
20260502232305 68 28 0.0 0.0 0.00 0.00 0.00 87 1024.1
20260502231804 67 27 0.0 5.2 0.00 0.00 0.00 91 1024.1
20260502231304 66 63 0.0 0.0 0.00 0.00 0.00 94 1024.2
20260502230304 65 63 0.0 0.0 0.00 0.00 0.00 96 1024.2
20260502225304 64 63 0.0 0.0 0.00 0.00 0.00 96 1024.4
20260502224803 63 63 0.0 0.0 0.00 0.00 0.00 96 1024.4
20260502224304 63 63 0.0 0.0 0.00 0.00 0.00 96 1024.5
20260502223304 61 63 0.0 0.0 0.00 0.00 0.00 96 1024.6
20260502222804 60 63 0.0 0.0 0.00 0.00 0.00 96 1024.6
20260502222305 60 63 0.0 0.0 0.00 0.00 0.00 96 1024.3
20260502221304 59 63 0.0 0.0 0.00 0.00 0.00 96 1024.4
20260502220804 58 63 0.0 0.0 0.00 0.00 0.00 96 1024.4
20260502220304 58 63 0.0 0.0 0.00 0.00 0.00 96 1024.2
20260502215305 57 63 0.0 0.0 0.00 0.00 0.00 96 1023.9
20260502213804 57 63 0.0 0.0 0.00 0.00 0.00 95 1023.9
20260502213304 56 63 0.0 0.0 0.00 0.00 0.00 95 1023.8
20260502212305 56 63 0.0 0.0 0.00 0.00 0.00 95 1023.6
20260502211804 56 63 0.0 0.0 0.00 0.00 0.00 95 1023.6
20260502211304 56 63 0.0 0.0 0.00 0.00 0.00 95 1023.7
20260502210804 55 63 0.0 0.0 0.00 0.00 0.00 95 1023.8
20260502210304 55 63 0.0 0.0 0.00 0.00 0.00 95 1023.8
20260502205803 55 63 0.0 0.0 0.00 0.00 0.00 95 1023.7
20260502205305 55 63 0.0 0.0 0.00 0.00 0.00 95 1023.7
20260502204304 55 63 0.0 0.0 0.00 0.00 0.00 95 1023.7
20260502203304 55 63 0.0 0.0 0.00 0.00 0.00 95 1023.6